Regional Weather Roundup
Issued by NWS New Orleans/Baton Rouge, LA

Home | Current Version | Previous Version | Text Only | Print | Product List | Glossary On
Versions: 1 2 3 4 5 6 7 8 9 10 11 12 13 14 15 16 17 18 19 20 21 22 23 24 25 26 27 28 29 30 31 32 33 34 35 36 37 38 39 40 41 42 43 44 45 46 47 48 49 50
812
ASUS44 KLIX 301301
RWRLIX
NEW ORLEANS REGIONAL WEATHER ROUNDUP
NATIONAL WEATHER SERVICE NEW ORLEANS LA
800 AM CDT THU OCT 30 2014

NOTE: "FAIR" INDICATES FEW OR NO CLOUDS BELOW 12,000 FEET WITH NO
      SIGNIFICANT WEATHER AND/OR OBSTRUCTIONS TO VISIBILITY.
      SKY/WX - SKY CONDITION AND SIGNIFICANT WEATHER.
      TMP - AIR TEMPERATURE.     DP    - DEWPOINT TEMPERATURE.
      RH  - RELATIVE HUMIDITY.   PRES  - PRESSURE.
      HI  - HEAT INDEX.          WCI   - WIND CHILL INDEX.

*  THESE STATIONS ARE NOT NWS OR FAA STATIONS AND ARE NOT UNDER
   NWS QUALITY CONTROL.

LAZ038-040-048-061>063-065>067-069-301400-
SOUTHEAST LOUISIANA

CITY           SKY/WX    TMP DP  RH WIND       PRES   REMARKS
N.O. AUDUBON   NOT AVBL
N.O. INTL ARPT PTCLDY    63  46  54 NE13      30.10R
N.O. LAKEFRONT CLEAR     64  47  53 NE18      30.11R
N.O. DOWNTOWN*   N/A     63  41  45 NE5       30.11R
SLIDELL        CLEAR     53  46  77 N5        30.10R
BATON ROUGE    CLEAR     51  46  83 NE3       30.13R
BOOTHVILLE     CLEAR     69  60  73 NE10      30.07R
BELLE CHASSE   PTCLDY    62  45  53 N8        30.09R
BOGALUSA*        N/A     50  46  85 N5        30.14R
NEW ROADS*       N/A     50  46  84 CALM      30.14R
GONZALES*        N/A     55  49  82 CALM      30.11S
HAMMOND*       NOT AVBL
HOUMA*         PTCLDY    61  52  72 N8        30.09R
PORT FOURCHON* CLOUDY    70  59  68 NE14      30.10R

$$

MSZ070-080>082-301400-
SOUTHERN MISSISSIPPI

CITY           SKY/WX    TMP DP  RH WIND       PRES   REMARKS
MCCOMB         CLEAR     52  42  69 N5        30.13R
GULFPORT       CLEAR     56  44  64 N7        30.10R
BILOXI         CLEAR     57  46  66 NE10      30.10R
PASCAGOULA     CLEAR     55  49  80 N7        30.10R
STENNIS ARPT*  CLEAR     54  46  76 N5        30.11R

$$

COASTAL OBSERVATIONS
LAKE AND NEARSHORE STATIONS

STATION/POSITION TIME  TEMP    WIND        PRES    WAVE
                       AIR SEA DIR/SP/G            HT/PER
                 (UTC) (F)     (DEG/KT/KT) (MB)    (FT/S)
PASCAGOULA       1200   57     360/ 10/ 12 1018.0
WAVELAND YACHT   1200   58      20/ 11/ 14 1018.3
GRAND ISLE       1200   69 76   40/  9/ 17 1018.4
SOUTHWEST PASS   1200   69 79              1017.6
NEW CANAL        1200   64 71   50/ 16/ 19 1019.3
SHELL BEACH      1200   65 69   40/ 19/ 22 1018.4

OFFSHORE STATIONS

STATION/POSITION TIME  TEMP    WIND        PRES    WAVE
                       AIR SEA DIR/SP/G            HT/PER
                 (UTC) (F)     (DEG/KT/KT) (MB)    (FT/S)
64 S DAUPHIN ISL 1200   71 78   30/ 14/ 16 1017.4    4/ 5

$$




USA.gov is the U.S. government's official web portal to all federal, state and local government web resources and services.